View from above orbital plane
|
View from above satellite
|
Ground track
|
The orbit data is extracted from the following two-line orbital elements,
1 44295U 19029BN 21058.80164960 .00003803 00000-0 87550-4 0 9998
2 44295 53.0025 343.7369 0009462 155.6598 204.4856 15.45237142100954
Epoch (UTC): | 27 February 2021 19:14:22 |
Eccentricity: | 0.0009462 |
inclination: | 53.0025° |
perigee height: | 424 km |
apogee height: | 437 km |
right ascension of ascending node: | 343.7369° |
argument of perigee: | 155.6598° |
revolutions per day: | 15.45237142 |
mean anomaly at epoch: | 204.4856° |
orbit number at epoch: | 10095 |
The dashed part of the orbit path shows where the satellite is in the earth's shadow,
|
|